User: anonymous   Login
Location: South Tamworth Observatory
(43.8246°N, 71.3026°W)
Time: 21:00:49
(UTC-04:00)
Language:

Cosmos 1844 - Orbit

View from above orbital plane
View from above orbital plane
View from above satellite
View from above satellite

Ground track
Ground track

The orbit data is extracted from the following two-line orbital elements,

1 17973U 87041A   16237.09409100  .00000351  00000-0  20919-3 0  9992
2 17973  70.8989 179.6970 0032210 214.4981 145.4051 14.14035367511142
Epoch (UTC): 24 August 2016 02:15:29
Eccentricity: 0.0032210
inclination: 70.8989°
perigee height: 822 km
apogee height: 869 km
right ascension of ascending node: 179.6970°
argument of perigee: 214.4981°
revolutions per day: 14.14035367
mean anomaly at epoch: 145.4051°
orbit number at epoch: 51114

The dashed part of the orbit path shows where the satellite is in the earth's shadow,  

DLR